Back to catalog

DMSP 5D-2 F14 DEB

AlivePO
NORAD 62945·DEBRIS·🇺🇸 United States

Launched Apr 4, 1997 from Vandenberg Space Force Base

Loading…

Next Passes (next 24 hours)

TLE

FreshSource: Space-Track

Epoch: Sep 13, 2026, 17:24 UTC

1 62945U 97012R   26256.72539398  .00007629  00000-0  67507-3 0  9994
2 62945  98.3424 334.6194 0160986   2.8633 357.3465 14.87120920524581

Track DMSP 5D-2 F14 DEB in real time with AllMySat

Download on the App Store